GW3636 Weather Reports


time (UTC)temp
C
wind
direction
speed
KPH
gust
KPH
rain 1hr
cm
rain 24hr
cm
rain mn
cm
humidity
%
barometer
mb
20260504202547 22 194 19.3 33.8 0.00 0.00 0.00 51 1009.3
20260504202047 23 221 19.3 37.0 0.00 0.00 0.00 51 1009.4
20260504201613 23 213 19.3 37.0 0.00 0.00 0.00 50 1009.5
20260504201051 23 197 20.9 32.2 0.00 0.00 0.00 51 1009.4
20260504200547 22 174 17.7 38.6 0.00 0.00 0.00 53 1009.5
20260504200053 22 194 22.5 38.6 0.00 0.00 0.00 52 1009.5
20260504195545 22 168 25.7 38.6 0.00 0.00 0.00 52 1009.7
20260504195047 22 181 24.1 35.4 0.00 0.00 0.00 53 1009.7
20260504194602 22 215 20.9 35.4 0.00 0.00 0.00 53 1009.7
20260504194048 21 201 20.9 37.0 0.00 0.00 0.00 53 1009.9
20260504193547 21 213 19.3 37.0 0.00 0.00 0.00 54 1010.0
20260504193102 21 167 20.9 32.2 0.00 0.00 0.00 54 1010.1
20260504192547 21 182 20.9 32.2 0.00 0.00 0.00 54 1010.2
20260504192051 21 157 12.9 30.6 0.00 0.00 0.00 54 1010.2
20260504191604 21 147 16.1 29.0 0.00 0.00 0.00 54 1010.3
20260504191048 21 171 16.1 27.4 0.00 0.00 0.00 54 1010.3
20260504190548 20 181 14.5 27.4 0.00 0.00 0.00 56 1010.4
20260504190114 20 127 14.5 32.2 0.00 0.00 0.00 55 1010.4
20260504185549 20 175 17.7 37.0 0.00 0.00 0.00 55 1010.4
20260504185045 19 219 22.5 37.0 0.00 0.00 0.00 56 1010.4
20260504184613 19 197 22.5 37.0 0.00 0.00 0.00 56 1010.5
20260504184046 20 182 16.1 32.2 0.00 0.00 0.00 55 1010.6
20260504183547 19 181 17.7 30.6 0.00 0.00 0.00 57 1010.6
20260504183059 18 188 16.1 32.2 0.00 0.00 0.00 58 1010.7
20260504182546 18 152 16.1 38.6 0.00 0.00 0.00 60 1010.9
20260504182047 18 178 20.9 38.6 0.00 0.00 0.00 60 1011.0
20260504181603 18 156 25.7 38.6 0.00 0.00 0.00 59 1011.1
20260504181047 18 178 9.7 33.8 0.00 0.00 0.00 57 1010.8
20260504180547 18 229 22.5 33.8 0.00 0.00 0.00 55 1011.8
20260504180056 18 244 17.7 30.6 0.00 0.00 0.00 55 1012.0
20260504175546 18 225 20.9 33.8 0.00 0.00 0.00 55 1011.9
20260504175047 19 223 19.3 37.0 0.00 0.00 0.00 54 1011.7
20260504174559 19 188 24.1 37.0 0.00 0.00 0.00 54 1011.4
20260504174047 19 225 27.4 35.4 0.00 0.00 0.00 53 1011.2
20260504173549 19 211 25.7 35.4 0.00 0.00 0.00 52 1011.0
20260504173103 20 229 24.1 35.4 0.00 0.00 0.00 52 1011.0
20260504172547 20 192 20.9 33.8 0.00 0.00 0.00 54 1010.9
20260504172048 19 200 20.9 32.2 0.00 0.00 0.00 55 1010.8
20260504171613 19 170 19.3 35.4 0.00 0.00 0.00 55 1010.8
20260504171047 18 203 20.9 38.6 0.00 0.00 0.00 57 1010.7
20260504170547 18 188 20.9 38.6 0.00 0.00 0.00 57 1010.8
20260504160105 16 206 25.7 41.8 0.00 0.00 0.00 62 1011.6
20260504151047 15 202 22.5 37.0 0.00 0.00 0.00 69 1012.2
20260504150548 15 217 19.3 37.0 0.00 0.00 0.00 71 1012.4
20260504141047 13 216 16.1 32.2 0.00 0.00 0.00 76 1013.2
20260504140548 12 186 19.3 41.8 0.00 0.00 0.00 76 1013.1
20260504140108 12 209 19.3 41.8 0.00 0.00 0.00 76 1013.1
20260504130547 11 220 19.3 30.6 0.00 0.00 0.00 79 1013.6
20260504120109 12 198 20.9 33.8 0.00 0.00 0.00 64 1013.0
20260504110549 10 154 12.9 22.5 0.00 0.00 0.00 64 1012.6
20260504110105 10 165 9.7 22.5 0.00 0.00 0.00 64 1012.6
20260504100549 10 175 9.7 16.1 0.00 0.00 0.00 61 1012.7
20260504081603 10 161 6.4 11.3 0.00 0.00 0.00 60 1013.2
20260504081048 10 159 6.4 14.5 0.00 0.00 0.00 60 1013.1
20260504080546 10 156 6.4 14.5 0.00 0.00 0.00 59 1013.2
20260504060105 11 187 8.0 11.3 0.00 0.00 0.00 59 1014.3
20260504050547 12 190 9.7 17.7 0.00 0.00 0.00 55 1014.7
20260504045548 11 179 8.0 25.7 0.00 0.00 0.00 58 1014.8
20260504045049 11 202 12.9 25.7 0.00 0.00 0.00 58 1014.7
20260504044554 11 163 12.9 24.1 0.00 0.00 0.00 56 1014.6
20260504044047 11 179 11.3 20.9 0.00 0.00 0.00 58 1014.3
20260504043547 11 136 9.7 16.1 0.00 0.00 0.00 59 1014.5
20260504043101 11 161 4.8 9.7 0.00 0.00 0.00 62 1014.9
20260504042546 11 175 3.2 8.0 0.00 0.00 0.00 65 1015.0
20260504042046 11 178 4.8 11.3 0.00 0.00 0.00 66 1015.0
20260504041555 11 184 4.8 11.3 0.00 0.00 0.00 68 1015.1
20260504041046 11 181 6.4 11.3 0.00 0.00 0.00 66 1015.2
20260504040551 11 175 4.8 11.3 0.00 0.00 0.00 64 1015.2
20260504040054 11 170 6.4 12.9 0.00 0.00 0.00 67 1015.2
20260504035547 11 179 8.0 12.9 0.00 0.00 0.00 67 1015.4
20260504035046 11 205 9.7 11.3 0.00 0.00 0.00 65 1015.4
20260504034556 12 210 3.2 8.0 0.00 0.00 0.00 61 1015.3
20260504034050 12 142 3.2 6.4 0.00 0.00 0.00 59 1015.1
20260504033547 12 0 1.6 4.8 0.00 0.00 0.00 61 1015.4
20260504033057 12 219 1.6 4.8 0.00 0.00 0.00 57 1015.4
20260504032547 12 196 1.6 6.4 0.00 0.00 0.00 58 1015.3
20260504032049 12 154 1.6 6.4 0.00 0.00 0.00 55 1015.0
20260504031601 12 124 3.2 4.8 0.00 0.00 0.00 54 1014.9
20260504031056 12 117 1.6 4.8 0.00 0.00 0.00 57 1015.0
20260504030544 12 140 0.0 4.8 0.00 0.00 0.00 58 1015.0
20260504030059 12 0 1.6 3.2 0.00 0.00 0.00 56 1015.2
20260504025548 12 194 1.6 6.4 0.00 0.00 0.00 56 1015.2
20260504025048 12 0 0.0 6.4 0.00 0.00 0.00 56 1015.1
20260504024601 13 107 4.8 6.4 0.00 0.00 0.00 52 1015.1
20260504024048 13 0 0.0 0.0 0.00 0.00 0.00 53 1015.3
20260504023551 13 0 0.0 0.0 0.00 0.00 0.00 53 1015.4
20260504023054 13 0 0.0 1.6 0.00 0.00 0.00 52 1015.4
20260504022546 13 0 0.0 3.2 0.00 0.00 0.00 50 1015.3
20260504022048 13 0 0.0 3.2 0.00 0.00 0.00 49 1015.1
20260504021556 13 238 1.6 3.2 0.00 0.00 0.00 50 1015.2
20260504021047 13 238 0.0 3.2 0.00 0.00 0.00 49 1015.0
20260504020547 13 238 1.6 4.8 0.00 0.00 0.00 48 1015.0
20260504020053 13 238 0.0 4.8 0.00 0.00 0.00 48 1015.0
20260504015544 13 238 1.6 4.8 0.00 0.00 0.00 47 1015.0
20260504015047 13 257 0.0 1.6 0.00 0.00 0.00 48 1014.9
20260504014558 13 0 0.0 0.0 0.00 0.00 0.00 48 1014.8
20260504014044 13 0 0.0 0.0 0.00 0.00 0.00 49 1014.7
20260504013546 13 0 0.0 0.0 0.00 0.00 0.00 44 1014.6
20260504013105 14 0 0.0 0.0 0.00 0.00 0.00 42 1014.5
20260504012546 14 0 0.0 3.2 0.00 0.00 0.00 40 1014.3
20260504012051 14 0 0.0 3.2 0.00 0.00 0.00 39 1014.2
20260504011554 14 115 1.6 3.2 0.00 0.00 0.00 40 1014.0
20260504011047 14 0 0.0 3.2 0.00 0.00 0.00 43 1014.2
20260504010547 14 0 0.0 3.2 0.00 0.00 0.00 41 1014.2
20260504010055 14 0 0.0 3.2 0.00 0.00 0.00 39 1014.4
20260504005547 14 0 0.0 1.6 0.00 0.00 0.00 39 1014.3
20260504005050 14 0 0.0 3.2 0.00 0.00 0.00 39 1014.2
20260504004602 14 0 0.0 3.2 0.00 0.00 0.00 38 1014.4
20260504004046 15 0 1.6 4.8 0.00 0.00 0.00 38 1014.5
20260504003547 15 296 3.2 4.8 0.00 0.00 0.00 38 1014.6
20260504003100 15 297 1.6 4.8 0.00 0.00 0.00 38 1014.6
20260504002547 15 198 1.6 6.4 0.00 0.00 0.00 37 1014.6
20260504002050 15 192 3.2 6.4 0.00 0.00 0.00 36 1014.6
20260504001556 15 193 4.8 6.4 0.00 0.00 0.00 36 1014.5
20260504001050 15 226 3.2 8.0 0.00 0.00 0.00 35 1014.6
20260504000546 15 185 4.8 8.0 0.00 0.00 0.00 35 1014.6
20260504000055 15 180 4.8 9.7 0.00 0.00 0.00 34 1014.6
20260503235546 15 196 4.8 9.7 0.00 0.00 0.00 35 1014.5
20260503235051 15 197 4.8 11.3 0.00 0.00 0.00 34 1014.6
20260503234555 15 202 8.0 17.7 0.00 0.00 0.00 33 1014.6
20260503234047 15 212 8.0 17.7 0.00 0.00 0.00 33 1014.7
20260503233547 15 196 9.7 14.5 0.00 0.00 0.00 32 1014.6
20260503233055 15 198 8.0 20.9 0.00 0.00 0.00 33 1014.6
20260503232545 16 198 12.9 20.9 0.00 0.00 0.00 33 1014.5
20260503232045 16 209 12.9 22.5 0.00 0.00 0.00 32 1014.6
20260503231555 16 215 8.0 22.5 0.00 0.00 0.00 32 1014.9
20260503231048 16 249 12.9 22.5 0.00 0.00 0.00 31 1014.9
20260503230547 16 213 14.5 24.1 0.00 0.00 0.00 31 1014.7
20260503230053 16 215 12.9 24.1 0.00 0.00 0.00 31 1014.7
20260503225545 16 213 17.7 24.1 0.00 0.00 0.00 31 1015.1
20260503225047 16 227 8.0 20.9 0.00 0.00 0.00 31 1014.9
20260503224550 16 187 11.3 24.1 0.00 0.00 0.00 30 1015.0
20260503224047 16 225 16.1 30.6 0.00 0.00 0.00 30 1015.1
20260503223547 16 242 19.3 30.6 0.00 0.00 0.00 30 1015.1
20260503223049 16 238 16.1 24.1 0.00 0.00 0.00 30 1015.4
20260503222546 16 188 14.5 25.7 0.00 0.00 0.00 30 1015.2
20260503222047 16 236 14.5 25.7 0.00 0.00 0.00 30 1015.3
20260503221553 16 189 16.1 27.4 0.00 0.00 0.00 31 1015.5
20260503221052 16 236 19.3 27.4 0.00 0.00 0.00 30 1015.5
20260503220547 16 210 9.7 27.4 0.00 0.00 0.00 31 1015.4
20260503220056 16 197 12.9 33.8 0.00 0.00 0.00 32 1015.3
20260503215546 16 232 24.1 33.8 0.00 0.00 0.00 30 1015.3
20260503215047 16 232 17.7 30.6 0.00 0.00 0.00 30 1015.4
20260503214551 16 214 16.1 30.6 0.00 0.00 0.00 30 1015.4
20260503214045 16 231 20.9 35.4 0.00 0.00 0.00 29 1015.4
20260503213545 16 197 20.9 35.4 0.00 0.00 0.00 30 1015.5
20260503213053 16 221 22.5 30.6 0.00 0.00 0.00 29 1015.5
20260503212545 16 194 16.1 30.6 0.00 0.00 0.00 31 1015.3
20260503212047 16 239 17.7 37.0 0.00 0.00 0.00 31 1015.3
20260503211600 16 263 22.5 37.0 0.00 0.00 0.00 31 1015.4
20260503211049 16 212 19.3 30.6 0.00 0.00 0.00 30 1015.5
20260503210547 16 249 22.5 30.6 0.00 0.00 0.00 30 1015.5
20260503210050 16 227 17.7 29.0 0.00 0.00 0.00 32 1015.6
20260503205548 16 209 16.1 29.0 0.00 0.00 0.00 30 1015.7
20260503205048 16 237 16.1 27.4 0.00 0.00 0.00 30 1015.8
20260503204549 16 234 17.7 27.4 0.00 0.00 0.00 31 1015.8
20260503204048 16 192 12.9 30.6 0.00 0.00 0.00 30 1015.9
20260503203548 16 238 16.1 30.6 0.00 0.00 0.00 33 1015.9
20260503203053 16 206 14.5 33.8 0.00 0.00 0.00 31 1016.0